,

(GMT )
Elsenborn

Weather History for EBLB - May, 2013

Change the Weather History Date:

Wednesday, May 15, 2013

  Actual Average Record
Temperature  
Mean Temperature 49 °F -  
Max Temperature 55 °F 55 °F 69 °F (1998)
Min Temperature 43 °F 43 °F 34 °F (2014)
Degree Days  
Heating Degree Days 16    
Moisture  
Dew Point 44 °F    
Average Humidity 80    
Maximum Humidity 94    
Minimum Humidity 60    
Precipitation  
Precipitation 0.04 in - - ()
Sea Level Pressure  
Sea Level Pressure 29.56 in    
Wind  
Wind Speed 7 mph ()    
Max Wind Speed 12 mph    
Max Gust Speed -    
Visibility 6.8 miles    
Events Rain    
Averages and records for this station are not official NWS values.
T = Trace of Precipitation, MM = Missing Value Source: Averaged Metar Reports

Daily Weather History Graph

Daily Weather History Graph

Search for Another Location

Airport or City:

Trip Planner

Search our weather history database for the weather conditions in past years. The results will help you decide how hot, cold, wet, or windy it might be!

Date:

Astronomy

May. 15, 2013 Rise Set
Actual Time 5:47 AM CEST 9:16 PM CEST
Civil Twilight 5:07 AM CEST 9:56 PM CEST
Nautical Twilight 4:13 AM CEST 10:51 PM CEST
Astronomical Twilight 2:59 AM CEST 12:07 AM CEST
Moon 10:12 AM CEST (5/15) 12:49 AM CEST (5/15)
Length of Visible Light 16h 49m
Length of Day
15h 29m
Waxing Crescent, 24% of the Moon is Illuminated
May 15
Waxing Crescent
May 18
First Quarter
May 25
Full
May 31
Last Quarter
Jun 8
New

Hourly Weather History & Observations

Time (CEST) Temp. Windchill Dew Point Humidity Pressure Visibility Wind Dir Wind Speed Gust Speed Precip Events Conditions
12:25 AM 46.4 °F 44.3 °F 39.2 °F 76% 29.62 in 6.2 mi SSE 4.6 mph - N/A   Partly Cloudy
1:25 AM 46.4 °F 42.9 °F 39.2 °F 76% 29.59 in 6.2 mi South 6.9 mph - N/A   Mostly Cloudy
2:00 AM 46 °F - 40 °F 72% 29.60 in 28 mi 2.2 mph - -   Partly Cloudy
2:25 AM 42.8 °F - 39.2 °F 87% 29.56 in 6.2 mi Variable 2.3 mph - N/A   Scattered Clouds
3:25 AM 42.8 °F 41.1 °F 39.2 °F 87% 29.53 in 6.2 mi Variable 3.5 mph - N/A   Mostly Cloudy
4:25 AM 48.2 °F - 44.6 °F 87% 29.50 in 6.2 mi SSE 11.5 mph - N/A   Mostly Cloudy
5:00 AM 48 °F - 45 °F 85% 29.52 in 19 mi South 8.9 mph - -   Clear
5:25 AM 48.2 °F - 44.6 °F 87% 29.50 in 6.2 mi South 9.2 mph - N/A   Mostly Cloudy
6:25 AM 48.2 °F - 46.4 °F 93% 29.53 in 6.2 mi South 9.2 mph - N/A   Overcast
7:25 AM 48.2 °F - 46.4 °F 93% 29.50 in 6.2 mi South 10.4 mph - N/A   Mostly Cloudy
8:00 AM 49 °F - 47 °F 91% 29.53 in 9 mi South 8.9 mph - - Rain Light Rain
8:25 AM 48.2 °F - 46.4 °F 93% 29.53 in 6.2 mi South 9.2 mph - N/A Rain Light Rain
9:25 AM 48.2 °F - 46.4 °F 93% 29.53 in 6.2 mi South 8.1 mph - N/A   Mostly Cloudy
10:25 AM 48.2 °F - 46.4 °F 93% 29.56 in 4.3 mi South 10.4 mph - N/A Rain Rain
11:00 AM 51 °F - 49 °F 90% 29.54 in 11 mi South 8.9 mph - - Rain Light Rain
11:08 AM 51.8 °F - 50.0 °F 94% 29.53 in 6.2 mi SSW 8.1 mph - N/A   Mostly Cloudy
11:25 AM 51.8 °F - 48.2 °F 88% 29.53 in 6.2 mi SSW 10.4 mph - N/A   Mostly Cloudy
12:22 PM 51.8 °F - 46.4 °F 82% 29.53 in 6.2 mi South 9.2 mph - N/A   Mostly Cloudy
12:25 PM 51.8 °F - 46.4 °F 82% 29.53 in 6.2 mi South 9.2 mph - N/A   Mostly Cloudy
1:25 PM 53.6 °F - 46.4 °F 77% 29.53 in 6.2 mi South 11.5 mph - N/A   Mostly Cloudy
2:00 PM 53 °F - 45 °F 65% 29.54 in 25 mi SSW 11.2 mph - -   Partly Cloudy
2:25 PM 51.8 °F - 44.6 °F 76% 29.56 in 6.2 mi SW 9.2 mph - N/A   Mostly Cloudy
3:25 PM 53.6 °F - 44.6 °F 72% 29.56 in 6.2 mi SSW 8.1 mph - N/A   Mostly Cloudy
4:25 PM 53.6 °F - 44.6 °F 72% 29.56 in 6.2 mi SW 10.4 mph - N/A   Mostly Cloudy
5:00 PM 54 °F - 44 °F 60% 29.57 in 22 mi South 8.9 mph - -   Overcast
5:25 PM 53.6 °F - 42.8 °F 67% 29.59 in 6.2 mi SW 9.2 mph - N/A   Mostly Cloudy
6:25 PM 55.4 °F - 44.6 °F 67% 29.59 in 6.2 mi SW 8.1 mph - N/A   Mostly Cloudy
6:28 PM 55.4 °F - 46.4 °F 72% 29.59 in 6.2 mi SSW 6.9 mph - N/A   Mostly Cloudy
6:41 PM 53.6 °F - 44.6 °F 72% 29.59 in 6.2 mi South 9.2 mph - N/A   Mostly Cloudy
7:25 PM 55.4 °F - 42.8 °F 63% 29.59 in 6.2 mi SW 9.2 mph - N/A   Scattered Clouds
8:00 PM 53 °F - 43 °F 61% 29.58 in 28 mi SSW 6.7 mph - -   Clear
8:25 PM 53.6 °F - 44.6 °F 72% 29.59 in 6.2 mi SSW 5.8 mph - N/A   Scattered Clouds
9:25 PM 48.2 °F - 42.8 °F 82% 29.59 in 6.2 mi Variable 3.5 mph - N/A   Partly Cloudy
10:25 PM 46.4 °F - 41.0 °F 81% 29.62 in 6.2 mi Variable 1.2 mph - N/A   Mostly Cloudy
11:25 PM 44.6 °F - 42.8 °F 93% 29.62 in 6.2 mi Calm Calm - N/A   Mostly Cloudy